^^
Saratoga-Weather Station Historical Data
Daily Summary for April 24, 2020 Units:  Metric    English   Both
Daily Weekly Monthly Yearly Custom
  High: Low: Average:
Temperature: 26.6 °C 16.5 °C 21.1 °C
Dew Point: 15.5 °C 9.3 °C 12.4 °C
Humidity: 81% 40% 59%
Wind Speed: 22.7km/h 0km/h 3.9km/h
Wind Gust: 29km/h - -
Wind- - West
Pressure: 1012.9 hPa 1010.8 hPa -
Precipitation: 0.0 mm    
Historical Graphs
 
 
Tabular Data for April 24, 2020
Time Temperature Dew Point Pressure Wind Wind Speed Wind Gust Humidity Rainfall Rate (Hourly) solar
00:01 20.8 °C 11.4 °C 1011.9 hPa Calm     55% 0.0 mm 0 W/m2
00:06 20.7 °C 11.6 °C 1011.9 hPa Calm     56% 0.0 mm 0 W/m2
00:11 20.6 °C 11.5 °C 1011.9 hPa Calm     56% 0.0 mm 0 W/m2
00:16 20.4 °C 11.6 °C 1011.9 hPa Calm     57% 0.0 mm 0 W/m2
00:21 20.3 °C 11.5 °C 1011.9 hPa Calm     57% 0.0 mm 0 W/m2
00:26 20.2 °C 11.4 °C 1011.9 hPa Calm     57% 0.0 mm 0 W/m2
00:31 20.1 °C 11.6 °C 1011.9 hPa Calm     58% 0.0 mm 0 W/m2
00:36 19.9 °C 11.6 °C 1011.9 hPa Calm     59% 0.0 mm 0 W/m2
00:41 19.8 °C 11.6 °C 1011.9 hPa Calm     59% 0.0 mm 0 W/m2
00:46 19.7 °C 11.5 °C 1011.9 hPa Calm     59% 0.0 mm 0 W/m2
00:51 19.6 °C 11.4 °C 1011.9 hPa Calm     59% 0.0 mm 0 W/m2
00:56 19.3 °C 11.3 °C 1011.9 hPa Calm     60% 0.0 mm 0 W/m2
01:01 19.2 °C 11.2 °C 1011.9 hPa Calm     60% 0.0 mm 0 W/m2
01:11 18.9 °C 11.5 °C 1011.9 hPa Calm     62% 0.0 mm 0 W/m2
01:16 18.9 °C 11.5 °C 1011.9 hPa Calm     62% 0.0 mm 0 W/m2
01:22 18.9 °C 11.7 °C 1011.9 hPa Calm     63% 0.0 mm 0 W/m2
01:27 18.8 °C 11.6 °C 1011.9 hPa Calm     63% 0.0 mm 0 W/m2
01:32 18.8 °C 11.6 °C 1011.9 hPa WSW 1.4 km/h 3.2 km/h 63% 0.0 mm 0 W/m2
01:37 18.8 °C 11.6 °C 1011.9 hPa Calm   1.6 km/h 63% 0.0 mm 0 W/m2
01:42 18.9 °C 11.7 °C 1011.9 hPa Calm     63% 0.0 mm 0 W/m2
01:47 18.8 °C 11.6 °C 1011.9 hPa WSW 1.4 km/h 1.6 km/h 63% 0.0 mm 0 W/m2
01:52 18.8 °C 11.6 °C 1011.9 hPa Calm   1.6 km/h 63% 0.0 mm 0 W/m2
01:57 18.8 °C 11.8 °C 1011.9 hPa Calm     64% 0.0 mm 0 W/m2
02:02 18.7 °C 11.8 °C 1011.9 hPa Calm   1.6 km/h 64% 0.0 mm 0 W/m2
02:07 18.6 °C 11.7 °C 1011.9 hPa Calm     64% 0.0 mm 0 W/m2
02:12 18.5 °C 11.8 °C 1011.9 hPa Calm     65% 0.0 mm 0 W/m2
02:17 18.3 °C 11.6 °C 1011.9 hPa Calm     65% 0.0 mm 0 W/m2
02:22 18.2 °C 11.7 °C 1011.9 hPa Calm     66% 0.0 mm 0 W/m2
02:27 18.1 °C 11.6 °C 1011.9 hPa Calm     66% 0.0 mm 0 W/m2
02:32 18 °C 11.6 °C 1011.9 hPa Calm     66% 0.0 mm 0 W/m2
02:37 17.9 °C 11.2 °C 1011.9 hPa Calm     65% 0.0 mm 0 W/m2
02:42 17.9 °C 11.2 °C 1011.9 hPa Calm     65% 0.0 mm 0 W/m2
02:47 18 °C 11.3 °C 1011.5 hPa Calm     65% 0.0 mm 0 W/m2
02:52 18 °C 11.3 °C 1011.5 hPa Calm     65% 0.0 mm 0 W/m2
02:57 18 °C 11.6 °C 1011.5 hPa Calm     66% 0.0 mm 0 W/m2
03:02 17.9 °C 11.5 °C 1011.5 hPa Calm     66% 0.0 mm 0 W/m2
03:07 17.8 °C 11.4 °C 1011.5 hPa Calm     66% 0.0 mm 0 W/m2
03:12 17.8 °C 11.4 °C 1011.5 hPa Calm     66% 0.0 mm 0 W/m2
03:17 17.7 °C 11.5 °C 1011.5 hPa Calm     67% 0.0 mm 0 W/m2
03:22 17.7 °C 11.5 °C 1011.5 hPa Calm     67% 0.0 mm 0 W/m2
03:27 17.6 °C 11.4 °C 1011.5 hPa Calm     67% 0.0 mm 0 W/m2
03:32 17.6 °C 11.4 °C 1011.5 hPa Calm     67% 0.0 mm 0 W/m2
03:37 17.4 °C 11.2 °C 1011.5 hPa Calm     67% 0.0 mm 0 W/m2
03:42 17.4 °C 11.2 °C 1011.5 hPa Calm     67% 0.0 mm 0 W/m2
03:47 17.3 °C 11.1 °C 1011.5 hPa Calm     67% 0.0 mm 0 W/m2
03:52 17.2 °C 11 °C 1011.2 hPa Calm     67% 0.0 mm 0 W/m2
03:57 17 °C 11.1 °C 1011.2 hPa Calm     68% 0.0 mm 0 W/m2
04:02 16.9 °C 11 °C 1011.2 hPa Calm     68% 0.0 mm 0 W/m2
04:07 16.8 °C 10.9 °C 1011.2 hPa Calm     68% 0.0 mm 0 W/m2
04:12 16.8 °C 10.9 °C 1011.2 hPa Calm     68% 0.0 mm 0 W/m2
04:17 16.7 °C 10.8 °C 1011.2 hPa Calm     68% 0.0 mm 0 W/m2
04:22 16.7 °C 11 °C 1011.2 hPa Calm     69% 0.0 mm 0 W/m2
04:27 16.7 °C 10.8 °C 1011.2 hPa Calm     68% 0.0 mm 0 W/m2
04:32 16.6 °C 10.9 °C 1011.2 hPa Calm     69% 0.0 mm 0 W/m2
04:37 16.5 °C 10.8 °C 1011.2 hPa Calm     69% 0.0 mm 0 W/m2
04:42 16.5 °C 10.8 °C 1011.2 hPa Calm     69% 0.0 mm 0 W/m2
04:47 16.5 °C 10.8 °C 1011.2 hPa Calm     69% 0.0 mm 0 W/m2
04:52 16.5 °C 10.8 °C 1011.2 hPa Calm     69% 0.0 mm 0 W/m2
04:57 16.5 °C 10.8 °C 1011.2 hPa Calm     69% 0.0 mm 0 W/m2
05:02 16.5 °C 11 °C 1011.2 hPa Calm     70% 0.0 mm 0 W/m2
05:07 16.5 °C 11 °C 1011.2 hPa Calm     70% 0.0 mm 0 W/m2
05:12 16.5 °C 11 °C 1011.2 hPa Calm     70% 0.0 mm 0 W/m2
05:17 16.5 °C 11.2 °C 1010.8 hPa Calm     71% 0.0 mm 0 W/m2
05:22 16.5 °C 11 °C 1011.2 hPa Calm     70% 0.0 mm 0 W/m2
05:27 16.6 °C 11.1 °C 1011.2 hPa Calm     70% 0.0 mm 0 W/m2
05:32 16.7 °C 11 °C 1011.2 hPa Calm     69% 0.0 mm 0 W/m2
05:37 16.8 °C 10.9 °C 1010.8 hPa Calm     68% 0.0 mm 0 W/m2
05:42 16.8 °C 10.9 °C 1011.2 hPa Calm     68% 0.0 mm 0 W/m2
05:47 16.9 °C 11 °C 1011.2 hPa Calm     68% 0.0 mm 0 W/m2
05:52 16.9 °C 11 °C 1011.2 hPa Calm     68% 0.0 mm 0 W/m2
05:57 17.1 °C 10.9 °C 1011.2 hPa Calm     67% 0.0 mm 0 W/m2
06:02 17.1 °C 10.9 °C 1011.2 hPa Calm     67% 0.0 mm 0 W/m2
06:07 17.1 °C 10.9 °C 1010.8 hPa Calm     67% 0.0 mm 0 W/m2
06:12 17.2 °C 11 °C 1010.8 hPa Calm     67% 0.0 mm 0 W/m2
06:17 17.2 °C 11 °C 1010.8 hPa Calm   1.6 km/h 67% 0.0 mm 0 W/m2
06:22 17.4 °C 11 °C 1010.8 hPa WSW 1.4 km/h 1.6 km/h 66% 0.0 mm 0 W/m2
06:27 17.4 °C 11 °C 1010.8 hPa Calm     66% 0.0 mm 5 W/m2
06:32 17.5 °C 11.1 °C 1010.8 hPa Calm     66% 0.0 mm 7 W/m2
06:37 17.5 °C 11.3 °C 1010.8 hPa Calm     67% 0.0 mm 12 W/m2
06:42 17.6 °C 11.2 °C 1010.8 hPa Calm     66% 0.0 mm 16 W/m2
06:47 17.6 °C 11.4 °C 1010.8 hPa Calm     67% 0.0 mm 16 W/m2
06:52 17.7 °C 11.5 °C 1011.2 hPa Calm     67% 0.0 mm 18 W/m2
06:57 17.7 °C 11.5 °C 1010.8 hPa Calm     67% 0.0 mm 23 W/m2
07:07 17.7 °C 11.7 °C 1010.8 hPa Calm   1.6 km/h 68% 0.0 mm 39 W/m2
07:12 17.8 °C 11.6 °C 1010.8 hPa Calm     67% 0.0 mm 39 W/m2
07:17 17.9 °C 11.7 °C 1011.2 hPa Calm   1.6 km/h 67% 0.0 mm 42 W/m2
07:22 17.9 °C 11.7 °C 1010.8 hPa Calm   1.6 km/h 67% 0.0 mm 42 W/m2
07:27 18 °C 11.8 °C 1010.8 hPa Calm     67% 0.0 mm 39 W/m2
07:32 18.1 °C 11.9 °C 1010.8 hPa Calm   1.6 km/h 67% 0.0 mm 44 W/m2
07:37 18.1 °C 11.9 °C 1010.8 hPa Calm     67% 0.0 mm 53 W/m2
07:42 18.1 °C 11.9 °C 1010.8 hPa Calm     67% 0.0 mm 56 W/m2
07:47 18.1 °C 11.9 °C 1010.8 hPa Calm   1.6 km/h 67% 0.0 mm 49 W/m2
07:52 18.1 °C 11.4 °C 1010.8 hPa Calm     65% 0.0 mm 42 W/m2
07:57 18.2 °C 12 °C 1011.2 hPa Calm     67% 0.0 mm 40 W/m2
08:02 18.2 °C 12.2 °C 1011.2 hPa Calm     68% 0.0 mm 46 W/m2
08:07 18.3 °C 12.1 °C 1011.2 hPa Calm     67% 0.0 mm 53 W/m2
08:12 18.3 °C 12.3 °C 1011.2 hPa Calm     68% 0.0 mm 53 W/m2
08:17 18.3 °C 12.3 °C 1011.2 hPa Calm     68% 0.0 mm 46 W/m2
08:22 18.3 °C 12.3 °C 1011.2 hPa Calm     68% 0.0 mm 44 W/m2
08:27 18.4 °C 12.6 °C 1011.2 hPa Calm     69% 0.0 mm 46 W/m2
08:32 18.4 °C 12.6 °C 1011.2 hPa Calm     69% 0.0 mm 46 W/m2
08:37 18.4 °C 12.6 °C 1011.2 hPa WSW 1.4 km/h 1.6 km/h 69% 0.0 mm 51 W/m2
08:42 18.4 °C 12.4 °C 1011.5 hPa WSW 1.4 km/h 3.2 km/h 68% 0.0 mm 51 W/m2
08:47 18.5 °C 12.5 °C 1011.5 hPa WSW 1.4 km/h 4.8 km/h 68% 0.0 mm 63 W/m2
08:52 18.6 °C 12.4 °C 1011.5 hPa Calm   3.2 km/h 67% 0.0 mm 86 W/m2
08:57 18.8 °C 11.8 °C 1011.5 hPa NNW 3.2 km/h 4.8 km/h 64% 0.0 mm 102 W/m2
09:02 19.1 °C 11.6 °C 1011.5 hPa WNW 6.4 km/h 6.4 km/h 62% 0.0 mm 128 W/m2
09:07 19.3 °C 11.6 °C 1011.5 hPa West 3.2 km/h 4.8 km/h 61% 0.0 mm 141 W/m2
09:12 19.4 °C 11.7 °C 1011.5 hPa WSW 7.9 km/h 12.9 km/h 61% 0.0 mm 169 W/m2
09:17 19.5 °C 11.8 °C 1011.9 hPa WNW 7.9 km/h 12.9 km/h 61% 0.0 mm 220 W/m2
09:22 19.6 °C 11.6 °C 1011.5 hPa West 9.7 km/h 11.3 km/h 60% 0.0 mm 230 W/m2
09:27 19.7 °C 11.7 °C 1011.9 hPa West 9.7 km/h 9.7 km/h 60% 0.0 mm 200 W/m2
09:32 19.9 °C 11.6 °C 1011.9 hPa WNW 4.7 km/h 11.3 km/h 59% 0.0 mm 178 W/m2
09:37 20 °C 11.2 °C 1011.9 hPa West 9.7 km/h 11.3 km/h 57% 0.0 mm 199 W/m2
09:42 20.1 °C 11.3 °C 1011.9 hPa NW 4.7 km/h 11.3 km/h 57% 0.0 mm 258 W/m2
09:47 20.3 °C 11.2 °C 1011.9 hPa WSW 11.1 km/h 14.5 km/h 56% 0.0 mm 236 W/m2
09:52 20.5 °C 10.9 °C 1011.9 hPa West 6.4 km/h 11.3 km/h 54% 0.0 mm 271 W/m2
09:57 21.1 °C 11.1 °C 1011.9 hPa West 14.3 km/h 14.5 km/h 53% 0.0 mm 666 W/m2
10:02 21.4 °C 10.8 °C 1011.9 hPa WNW 3.2 km/h 6.4 km/h 51% 0.0 mm 316 W/m2
10:07 21.7 °C 11.1 °C 1011.9 hPa North 6.4 km/h 8 km/h 51% 0.0 mm 288 W/m2
10:12 21.7 °C 10.8 °C 1011.9 hPa WNW 6.4 km/h 6.4 km/h 50% 0.0 mm 279 W/m2
10:17 21.9 °C 11 °C 1011.9 hPa West 4.7 km/h 4.8 km/h 50% 0.0 mm 497 W/m2
10:22 22.1 °C 10.3 °C 1011.9 hPa WSW 11.1 km/h 14.5 km/h 47% 0.0 mm 294 W/m2
10:27 22.1 °C 10.3 °C 1011.9 hPa West 9.7 km/h 14.5 km/h 47% 0.0 mm 448 W/m2
10:32 22.3 °C 10.1 °C 1011.9 hPa NW 3.2 km/h 9.7 km/h 46% 0.0 mm 499 W/m2
10:37 22.7 °C 10.5 °C 1011.9 hPa WNW 6.4 km/h 14.5 km/h 46% 0.0 mm 557 W/m2
10:42 22.9 °C 9.3 °C 1011.9 hPa WNW 4.7 km/h 11.3 km/h 42% 0.0 mm 413 W/m2
10:47 22.9 °C 9.7 °C 1011.9 hPa West 9.7 km/h 11.3 km/h 43% 0.0 mm 366 W/m2
10:52 22.9 °C 10 °C 1012.2 hPa WSW 6.4 km/h 9.7 km/h 44% 0.0 mm 327 W/m2
10:57 22.7 °C 10.2 °C 1011.9 hPa West 9.7 km/h 9.7 km/h 45% 0.0 mm 311 W/m2
11:02 22.7 °C 9.8 °C 1011.9 hPa NNW 3.2 km/h 8 km/h 44% 0.0 mm 334 W/m2
11:07 22.7 °C 10.2 °C 1012.2 hPa WNW 4.7 km/h 6.4 km/h 45% 0.0 mm 327 W/m2
11:12 22.6 °C 9.7 °C 1012.2 hPa WNW 7.9 km/h 11.3 km/h 44% 0.0 mm 304 W/m2
11:17 22.6 °C 9.7 °C 1012.2 hPa NW 4.7 km/h 12.9 km/h 44% 0.0 mm 304 W/m2
11:22 22.6 °C 10.1 °C 1012.2 hPa WSW 4.7 km/h 9.7 km/h 45% 0.0 mm 292 W/m2
11:27 22.6 °C 10.1 °C 1012.2 hPa WNW 1.4 km/h 12.9 km/h 45% 0.0 mm 257 W/m2
11:32 22.6 °C 10.1 °C 1012.2 hPa NNW 6.4 km/h 11.3 km/h 45% 0.0 mm 306 W/m2
11:37 22.4 °C 9.9 °C 1012.2 hPa WNW 4.7 km/h 9.7 km/h 45% 0.0 mm 272 W/m2
11:42 22.3 °C 10.1 °C 1012.2 hPa NNW 4.7 km/h 4.8 km/h 46% 0.0 mm 320 W/m2
11:47 22.3 °C 10.4 °C 1012.2 hPa WNW 3.2 km/h 6.4 km/h 47% 0.0 mm 325 W/m2
11:52 22.4 °C 10.2 °C 1012.2 hPa WNW 6.4 km/h 6.4 km/h 46% 0.0 mm 369 W/m2
11:57 22.5 °C 10.3 °C 1012.2 hPa NNW 3.2 km/h 6.4 km/h 46% 0.0 mm 424 W/m2
12:02 22.7 °C 10.5 °C 1012.2 hPa WNW 6.4 km/h 12.9 km/h 46% 0.0 mm 403 W/m2
12:08 23 °C 11.1 °C 1012.2 hPa NW 3.2 km/h 8 km/h 47% 0.0 mm 758 W/m2
12:13 23.3 °C 10.4 °C 1012.2 hPa West 4.7 km/h 16.1 km/h 44% 0.0 mm 533 W/m2
12:18 23.4 °C 11.1 °C 1012.2 hPa WSW 4.7 km/h 12.9 km/h 46% 0.0 mm 415 W/m2
12:23 23.6 °C 10.6 °C 1012.2 hPa SW 6.4 km/h 17.7 km/h 44% 0.0 mm 380 W/m2
12:28 23.7 °C 11.7 °C 1012.2 hPa WNW 6.4 km/h 11.3 km/h 47% 0.0 mm 450 W/m2
12:33 24.1 °C 11.4 °C 1012.2 hPa NW 7.9 km/h 16.1 km/h 45% 0.0 mm 533 W/m2
12:38 24.1 °C 11.8 °C 1012.2 hPa SW 4.7 km/h 4.8 km/h 46% 0.0 mm 439 W/m2
12:43 24.3 °C 11.6 °C 1012.2 hPa WSW 7.9 km/h 16.1 km/h 45% 0.0 mm 501 W/m2
12:48 24.3 °C 11.6 °C 1012.2 hPa WSW 11.1 km/h 11.3 km/h 45% 0.0 mm 471 W/m2
12:53 24.2 °C 11.8 °C 1012.2 hPa WSW 13 km/h 14.5 km/h 46% 0.0 mm 533 W/m2
12:58 24.2 °C 11.5 °C 1012.2 hPa West 3.2 km/h 6.4 km/h 45% 0.0 mm 443 W/m2
13:03 24.3 °C 11.3 °C 1012.2 hPa NNE 4.7 km/h 8 km/h 44% 0.0 mm 457 W/m2
13:08 24.6 °C 11.2 °C 1012.2 hPa SW 6.4 km/h 20.9 km/h 43% 0.0 mm 656 W/m2
13:13 24.7 °C 11.6 °C 1012.2 hPa West 13 km/h 14.5 km/h 44% 0.0 mm 540 W/m2
13:18 24.4 °C 11.4 °C 1012.2 hPa WNW 6.4 km/h 20.9 km/h 44% 0.0 mm 547 W/m2
13:23 24.3 °C 11.6 °C 1012.2 hPa NW 6.4 km/h 20.9 km/h 45% 0.0 mm 547 W/m2
13:28 24.4 °C 11.7 °C 1012.2 hPa SSW 6.4 km/h 12.9 km/h 45% 0.0 mm 889 W/m2
13:34 24.4 °C 11.7 °C 1011.9 hPa West 9.7 km/h 14.5 km/h 45% 0.0 mm 1090 W/m2
13:39 24.7 °C 12.3 °C 1011.9 hPa NW 6.4 km/h 9.7 km/h 46% 0.0 mm 638 W/m2
13:44 25.2 °C 12.1 °C 1011.9 hPa WNW 7.9 km/h 8 km/h 44% 0.0 mm 990 W/m2
13:49 25.7 °C 11.8 °C 1011.9 hPa West 19.5 km/h 22.5 km/h 42% 0.0 mm 758 W/m2
13:54 25.8 °C 11.9 °C 1011.9 hPa WSW 7.9 km/h 16.1 km/h 42% 0.0 mm 1021 W/m2
13:59 25.8 °C 11.5 °C 1011.9 hPa NW 22.5 km/h 22.5 km/h 41% 0.0 mm 840 W/m2
14:04 25.8 °C 11.9 °C 1011.9 hPa WNW 3.2 km/h 14.5 km/h 42% 0.0 mm 1055 W/m2
14:09 26.1 °C 11.8 °C 1011.5 hPa West 4.7 km/h 16.1 km/h 41% 0.0 mm 1048 W/m2
14:14 26.3 °C 12 °C 1011.9 hPa NW 6.4 km/h 8 km/h 41% 0.0 mm 1063 W/m2
14:19 26.3 °C 11.6 °C 1011.5 hPa NW 3.2 km/h 14.5 km/h 40% 0.0 mm 958 W/m2
14:24 26 °C 12.1 °C 1011.9 hPa WSW 1.4 km/h 14.5 km/h 42% 0.0 mm 1069 W/m2
14:29 26.1 °C 11.8 °C 1011.5 hPa WNW 22.7 km/h 22.5 km/h 41% 0.0 mm 984 W/m2
14:34 25.7 °C 11.5 °C 1011.9 hPa West 6.4 km/h 12.9 km/h 41% 0.0 mm 288 W/m2
14:39 25.7 °C 11.5 °C 1011.9 hPa WNW 4.7 km/h 16.1 km/h 41% 0.0 mm 731 W/m2
14:44 25.9 °C 12 °C 1011.5 hPa WNW 6.4 km/h 8 km/h 42% 0.0 mm 1055 W/m2
14:49 26.1 °C 11.8 °C 1011.5 hPa NW 9.7 km/h 16.1 km/h 41% 0.0 mm 1041 W/m2
14:54 26.1 °C 11.8 °C 1011.5 hPa Calm   12.9 km/h 41% 0.0 mm 1025 W/m2
14:59 26.4 °C 12.1 °C 1011.5 hPa NW 4.7 km/h 20.9 km/h 41% 0.0 mm 1104 W/m2
15:04 26.4 °C 12.1 °C 1011.5 hPa NNW 6.4 km/h 11.3 km/h 41% 0.0 mm 1179 W/m2
15:09 26.2 °C 12.6 °C 1011.5 hPa West 11.1 km/h 22.5 km/h 43% 0.0 mm 376 W/m2
15:14 25.7 °C 12.9 °C 1011.5 hPa WNW 13 km/h 20.9 km/h 45% 0.0 mm 318 W/m2
15:19 25.5 °C 13 °C 1011.5 hPa NW 13 km/h 12.9 km/h 46% 0.0 mm 341 W/m2
15:24 25.7 °C 12.9 °C 1011.5 hPa NW 6.4 km/h 19.3 km/h 45% 0.0 mm 689 W/m2
15:29 25.7 °C 12.9 °C 1011.5 hPa WNW 4.7 km/h 16.1 km/h 45% 0.0 mm 396 W/m2
15:34 25.6 °C 13.1 °C 1011.2 hPa WNW 11.1 km/h 14.5 km/h 46% 0.0 mm 278 W/m2
15:39 25.4 °C 12.9 °C 1011.2 hPa WNW 11.1 km/h 14.5 km/h 46% 0.0 mm 258 W/m2
15:44 25.3 °C 13.2 °C 1011.5 hPa NNW 6.4 km/h 17.7 km/h 47% 0.0 mm 283 W/m2
15:49 25.3 °C 13.2 °C 1011.5 hPa West 17.7 km/h 19.3 km/h 47% 0.0 mm 1002 W/m2
15:54 25.9 °C 13.4 °C 1011.2 hPa NNW 9.7 km/h 20.9 km/h 46% 0.0 mm 932 W/m2
15:59 26.1 °C 13.6 °C 1011.2 hPa SW 11.1 km/h 14.5 km/h 46% 0.0 mm 900 W/m2
16:04 26.3 °C 13.4 °C 1011.2 hPa WSW 13 km/h 27.4 km/h 45% 0.0 mm 854 W/m2
16:09 26.6 °C 13.7 °C 1011.2 hPa West 6.4 km/h 11.3 km/h 45% 0.0 mm 874 W/m2
16:14 26.2 °C 13.3 °C 1011.2 hPa NNW 13 km/h 17.7 km/h 45% 0.0 mm 248 W/m2
16:19 25.6 °C 13.5 °C 1011.2 hPa WNW 11.1 km/h 11.3 km/h 47% 0.0 mm 218 W/m2
16:24 25.4 °C 13.6 °C 1011.5 hPa WNW 6.4 km/h 19.3 km/h 48% 0.0 mm 264 W/m2
16:29 25.2 °C 13.4 °C 1011.2 hPa West 9.7 km/h 17.7 km/h 48% 0.0 mm 255 W/m2
16:34 25 °C 13.2 °C 1011.2 hPa NW 6.4 km/h 12.9 km/h 48% 0.0 mm 279 W/m2
16:39 24.9 °C 13.8 °C 1011.2 hPa NW 13 km/h 17.7 km/h 50% 0.0 mm 489 W/m2
16:44 25.2 °C 14 °C 1011.2 hPa West 9.7 km/h 12.9 km/h 50% 0.0 mm 278 W/m2
16:49 25.7 °C 14.5 °C 1011.2 hPa West 14.3 km/h 14.5 km/h 50% 0.0 mm 722 W/m2
16:54 25.9 °C 13.7 °C 1011.2 hPa WNW 17.7 km/h 17.7 km/h 47% 0.0 mm 315 W/m2
16:59 25.6 °C 13.5 °C 1011.2 hPa WSW 7.9 km/h 14.5 km/h 47% 0.0 mm 330 W/m2
17:04 25.6 °C 13.8 °C 1011.2 hPa West 11.1 km/h 12.9 km/h 48% 0.0 mm 664 W/m2
17:09 25.6 °C 13.5 °C 1011.2 hPa WNW 7.9 km/h 11.3 km/h 47% 0.0 mm 156 W/m2
17:14 25.1 °C 13.9 °C 1011.5 hPa West 11.1 km/h 17.7 km/h 50% 0.0 mm 135 W/m2
17:19 24.2 °C 14.6 °C 1011.5 hPa WNW 16.3 km/h 29 km/h 55% 0.0 mm 132 W/m2
17:25 23.4 °C 14.4 °C 1011.9 hPa NW 14.3 km/h 20.9 km/h 57% 0.0 mm 118 W/m2
17:30 22.7 °C 14.5 °C 1011.9 hPa NW 13 km/h 22.5 km/h 60% 0.0 mm 111 W/m2
17:35 22.3 °C 13.9 °C 1011.9 hPa NNW 7.9 km/h 20.9 km/h 59% 0.0 mm 111 W/m2
17:40 21.9 °C 14 °C 1011.9 hPa NW 6.4 km/h 14.5 km/h 61% 0.0 mm 118 W/m2
17:45 21.8 °C 14.2 °C 1011.9 hPa NNW 1.4 km/h 12.9 km/h 62% 0.0 mm 123 W/m2
17:50 21.8 °C 14.7 °C 1011.9 hPa West 3.2 km/h 8 km/h 64% 0.0 mm 160 W/m2
17:55 21.8 °C 14.4 °C 1011.9 hPa WNW 4.7 km/h 11.3 km/h 63% 0.0 mm 227 W/m2
18:00 22.1 °C 14.5 °C 1011.9 hPa West 6.4 km/h 9.7 km/h 62% 0.0 mm 448 W/m2
18:06 22.3 °C 14.2 °C 1011.9 hPa NW 1.4 km/h 11.3 km/h 60% 0.0 mm 309 W/m2
18:11 22.7 °C 14 °C 1011.9 hPa WNW 1.4 km/h 8 km/h 58% 0.0 mm 362 W/m2
18:16 23.1 °C 14.1 °C 1011.9 hPa West 9.7 km/h 14.5 km/h 57% 0.0 mm 332 W/m2
18:21 23.2 °C 14.2 °C 1011.9 hPa WNW 1.4 km/h 6.4 km/h 57% 0.0 mm 487 W/m2
18:26 23.7 °C 14.7 °C 1011.9 hPa WNW 3.2 km/h 4.8 km/h 57% 0.0 mm 443 W/m2
18:31 24 °C 14.7 °C 1011.9 hPa NW 11.1 km/h 16.1 km/h 56% 0.0 mm 206 W/m2
18:36 24 °C 14.7 °C 1011.9 hPa WSW 7.9 km/h 12.9 km/h 56% 0.0 mm 137 W/m2
18:41 23.9 °C 14.9 °C 1011.9 hPa West 6.4 km/h 12.9 km/h 57% 0.0 mm 130 W/m2
18:46 23.8 °C 15 °C 1011.9 hPa WNW 4.7 km/h 11.3 km/h 58% 0.0 mm 134 W/m2
18:51 23.7 °C 15.2 °C 1011.9 hPa WNW 4.7 km/h 12.9 km/h 59% 0.0 mm 132 W/m2
18:56 23.7 °C 15.2 °C 1011.9 hPa NNW 1.4 km/h 6.4 km/h 59% 0.0 mm 141 W/m2
19:01 23.7 °C 15.2 °C 1011.9 hPa NNW 1.4 km/h 4.8 km/h 59% 0.0 mm 142 W/m2
19:06 23.7 °C 15.2 °C 1011.9 hPa NW 9.7 km/h 12.9 km/h 59% 0.0 mm 142 W/m2
19:11 23.6 °C 15.1 °C 1011.9 hPa WNW 11.1 km/h 11.3 km/h 59% 0.0 mm 153 W/m2
19:16 23.6 °C 15.1 °C 1011.9 hPa West 9.7 km/h 9.7 km/h 59% 0.0 mm 169 W/m2
19:21 23.8 °C 15 °C 1011.9 hPa WSW 4.7 km/h 14.5 km/h 58% 0.0 mm 113 W/m2
19:26 23.8 °C 15 °C 1011.9 hPa WSW 3.2 km/h 4.8 km/h 58% 0.0 mm 107 W/m2
19:31 23.8 °C 15.3 °C 1011.9 hPa West 3.2 km/h 12.9 km/h 59% 0.0 mm 153 W/m2
19:36 23.8 °C 15 °C 1011.9 hPa WSW 7.9 km/h 8 km/h 58% 0.0 mm 81 W/m2
19:41 23.7 °C 14.9 °C 1011.9 hPa WNW 3.2 km/h 11.3 km/h 58% 0.0 mm 72 W/m2
19:46 23.7 °C 14.9 °C 1011.9 hPa SW 6.4 km/h 9.7 km/h 58% 0.0 mm 58 W/m2
19:51 23.5 °C 15 °C 1011.9 hPa West 6.4 km/h 12.9 km/h 59% 0.0 mm 63 W/m2
19:56 23.4 °C 14.9 °C 1011.9 hPa WSW 6.4 km/h 6.4 km/h 59% 0.0 mm 51 W/m2
20:01 23.3 °C 15.1 °C 1011.9 hPa WNW 7.9 km/h 16.1 km/h 60% 0.0 mm 42 W/m2
20:11 22.9 °C 15.2 °C 1011.9 hPa WNW 3.2 km/h 6.4 km/h 62% 0.0 mm 58 W/m2
20:16 22.9 °C 15.2 °C 1012.2 hPa NW 4.7 km/h 4.8 km/h 62% 0.0 mm 102 W/m2
20:21 23.2 °C 15.5 °C 1012.2 hPa WNW 7.9 km/h 9.7 km/h 62% 0.0 mm 132 W/m2
20:26 23.3 °C 15.4 °C 1012.2 hPa NW 9.7 km/h 16.1 km/h 61% 0.0 mm 125 W/m2
20:31 23.3 °C 15.4 °C 1012.2 hPa North 4.7 km/h 8 km/h 61% 0.0 mm 114 W/m2
20:36 23.2 °C 15.5 °C 1012.2 hPa North 3.2 km/h 16.1 km/h 62% 0.0 mm 51 W/m2
20:41 22.9 °C 15.2 °C 1012.2 hPa WNW 6.4 km/h 8 km/h 62% 0.0 mm 39 W/m2
20:46 22.7 °C 15 °C 1012.2 hPa WNW 7.9 km/h 12.9 km/h 62% 0.0 mm 32 W/m2
20:51 22.6 °C 15.2 °C 1012.2 hPa WNW 3.2 km/h 4.8 km/h 63% 0.0 mm 33 W/m2
20:56 22.6 °C 15.2 °C 1012.2 hPa NW 4.7 km/h 11.3 km/h 63% 0.0 mm 33 W/m2
21:01 22.6 °C 15.2 °C 1012.2 hPa WSW 6.4 km/h 8 km/h 63% 0.0 mm 35 W/m2
21:06 22.6 °C 15.2 °C 1012.2 hPa Calm   3.2 km/h 63% 0.0 mm 25 W/m2
21:11 22.4 °C 15 °C 1012.2 hPa Calm   3.2 km/h 63% 0.0 mm 14 W/m2
21:16 22.2 °C 15.1 °C 1012.2 hPa West 1.4 km/h 3.2 km/h 64% 0.0 mm 11 W/m2
21:21 22.1 °C 15 °C 1012.2 hPa WNW 1.4 km/h 3.2 km/h 64% 0.0 mm 7 W/m2
21:26 21.8 °C 14.9 °C 1012.2 hPa West 3.2 km/h 4.8 km/h 65% 0.0 mm 0 W/m2
21:31 21.6 °C 15 °C 1012.5 hPa West 3.2 km/h 6.4 km/h 66% 0.0 mm 0 W/m2
21:36 21.4 °C 14.8 °C 1012.5 hPa West 3.2 km/h 3.2 km/h 66% 0.0 mm 0 W/m2
21:41 21.3 °C 14.9 °C 1012.5 hPa Calm   6.4 km/h 67% 0.0 mm 0 W/m2
21:46 21.2 °C 14.8 °C 1012.5 hPa Calm   3.2 km/h 67% 0.0 mm 0 W/m2
21:51 21.1 °C 15 °C 1012.5 hPa West 1.4 km/h 1.6 km/h 68% 0.0 mm 0 W/m2
21:56 20.9 °C 14.8 °C 1012.5 hPa Calm   3.2 km/h 68% 0.0 mm 0 W/m2
22:01 20.8 °C 14.9 °C 1012.9 hPa West 1.4 km/h 1.6 km/h 69% 0.0 mm 0 W/m2
22:11 20.5 °C 14.8 °C 1012.9 hPa West 1.4 km/h 3.2 km/h 70% 0.0 mm 0 W/m2
22:16 20.3 °C 14.9 °C 1012.9 hPa Calm     71% 0.0 mm 0 W/m2
22:21 20.2 °C 14.8 °C 1012.9 hPa West 1.4 km/h 1.6 km/h 71% 0.0 mm 0 W/m2
22:26 19.9 °C 14.7 °C 1012.9 hPa West 1.4 km/h 1.6 km/h 72% 0.0 mm 0 W/m2
22:31 19.7 °C 14.5 °C 1012.9 hPa West 1.4 km/h 3.2 km/h 72% 0.0 mm 0 W/m2
22:36 19.6 °C 14.6 °C 1012.9 hPa Calm   1.6 km/h 73% 0.0 mm 0 W/m2
22:41 19.4 °C 14.6 °C 1012.9 hPa West 3.2 km/h 3.2 km/h 74% 0.0 mm 0 W/m2
22:46 19.2 °C 14.7 °C 1012.9 hPa West 1.4 km/h 1.6 km/h 75% 0.0 mm 0 W/m2
22:51 19.1 °C 14.6 °C 1012.9 hPa West 3.2 km/h 3.2 km/h 75% 0.0 mm 0 W/m2
22:56 18.9 °C 14.6 °C 1012.9 hPa Calm   1.6 km/h 76% 0.0 mm 0 W/m2
23:01 18.7 °C 14.4 °C 1012.9 hPa Calm     76% 0.0 mm 0 W/m2
23:11 18.5 °C 14.4 °C 1012.9 hPa Calm     77% 0.0 mm 0 W/m2
23:16 18.3 °C 14.4 °C 1012.9 hPa Calm     78% 0.0 mm 0 W/m2
23:21 18.3 °C 14.4 °C 1012.9 hPa Calm     78% 0.0 mm 0 W/m2
23:26 18.2 °C 14.5 °C 1012.9 hPa Calm     79% 0.0 mm 0 W/m2
23:31 18.1 °C 14.4 °C 1012.9 hPa Calm     79% 0.0 mm 0 W/m2
23:36 17.9 °C 14.2 °C 1012.9 hPa Calm     79% 0.0 mm 0 W/m2
23:41 17.8 °C 14.3 °C 1012.9 hPa Calm     80% 0.0 mm 0 W/m2
23:46 17.8 °C 14.3 °C 1012.9 hPa Calm     80% 0.0 mm 0 W/m2
23:51 17.7 °C 14.2 °C 1012.9 hPa Calm     80% 0.0 mm 0 W/m2
23:56 17.7 °C 14.4 °C 1012.9 hPa Calm     81% 0.0 mm 0 W/m2
Juneau County Weather
Compliments of Weather Underground - 4 mb